Wind_Speed
48 47 48 46 46 47 47 47 45 43 43 42 42 42 40 40 41 42 42 43 44 44 44 43 39 38 37 38 43 47 49 50 51 50 49 52 55 53 52 51 49 51 52 51 51 49 47 46 45 43 41 41 40 39 37 35 33 33 32 31 30 29 28 27 26 25 24 23 22 22 21 20 19 18 16 15 14 13 12 11 10 9 8 8 8 8 8 9
48 47 47 45 45 46 47 46 45 43 43 42 41 41 40 40 41 41 42 42 44 44 45 47 44 40 37 39 43 45 46 47 49 49 49 50 52 52 52 51 51 52 53 52 52 50 48 47 45 43 42 41 40 39 37 35 34 33 32 32 31 30 28 27 26 25 24 22 21 20 19 19 18 17 16 15 13 12 12 11 11 9 8 7 7 8 7 8
48 47 45 44 45 46 46 45 44 43 43 42 41 41 40 40 40 40 41 42 44 45 45 46 47 46 42 40 43 45 45 45 46 46 47 48 49 51 53 53 52 54 54 53 52 50 49 48 47 45 42 41 41 39 37 35 34 34 34 33 32 30 29 28 26 25 23 22 20 19 19 18 18 17 16 15 14 13 12 12 11 10 9 7 7 7 7 7
48 47 45 44 45 45 46 45 44 43 42 42 41 40 39 39 39 40 40 41 43 44 45 45 45 48 49 43 43 46 44 43 44 44 46 48 47 49 53 54 55 54 55 54 53 51 50 49 48 46 44 43 42 40 38 36 35 35 35 34 32 31 29 28 27 26 25 23 21 20 19 18 18 17 16 16 15 14 13 12 11 11 10 8 7 7 7 7
49 47 46 44 45 46 46 45 44 43 42 42 40 39 38 38 38 38 39 40 42 44 44 45 45 48 51 48 45 45 44 43 43 44 45 47 48 49 50 54 57 56 56 55 53 52 51 49 48 47 45 44 43 41 39 37 36 37 36 35 33 32 30 29 28 27 26 24 22 21 20 19 18 17 16 15 15 14 13 12 12 11 11 10 9 8 7 7
48 47 46 44 45 46 45 45 44 43 42 41 40 39 37 37 37 37 38 38 40 43 43 44 47 49 50 49 48 46 44 42 43 45 43 44 48 49 48 52 57 56 57 56 54 52 51 50 49 47 45 44 43 41 39 37 37 37 36 35 33 32 31 29 29 28 26 25 23 21 20 19 18 17 16 16 15 15 14 13 12 11 11 11 10 9 8 8
48 47 45 45 46 46 45 45 44 42 41 40 39 38 37 36 36 36 36 37 38 41 42 43 46 49 50 50 49 48 45 42 44 45 43 43 47 49 48 51 56 57 58 57 54 52 51 50 48 46 45 44 43 42 40 38 38 38 36 35 34 33 31 30 30 28 27 26 24 22 21 20 19 18 17 16 15 14 14 13 12 11 10 10 10 10 10 9
48 47 45 46 47 46 46 45 44 42 41 40 39 38 36 35 35 35 35 35 36 39 41 42 45 47 50 51 50 48 46 44 45 44 43 44 46 48 49 52 55 57 59 57 54 52 50 49 47 46 45 44 43 42 40 39 39 38 37 36 35 33 32 31 30 29 28 26 25 23 22 21 20 18 17 17 15 15 14 13 12 11 11 11 11 11 10 10
48 46 46 48 48 47 46 45 44 42 40 39 39 38 36 35 35 34 34 34 35 37 39 41 44 46 48 50 51 49 45 45 45 44 44 46 46 47 50 54 57 58 59 57 55 53 51 49 47 46 45 44 44 42 41 40 39 39 37 36 35 33 32 31 31 29 28 27 26 24 22 22 21 19 18 17 16 16 16 14 13 12 11 11 11 11 11 11
48 47 48 49 49 48 46 45 44 41 40 38 38 37 36 35 34 34 34 34 35 36 38 39 42 45 47 49 51 48 44 44 45 44 45 47 48 48 51 56 59 59 59 57 55 53 51 50 48 46 46 46 45 43 42 41 40 39 38 37 35 33 32 32 31 30 29 27 26 24 23 22 21 20 19 19 18 18 17 15 14 13 12 11 11 11 11 11
49 49 50 50 49 48 46 45 43 41 39 38 37 36 35 34 34 34 34 34 34 35 36 37 40 42 45 47 49 47 44 43 44 43 45 48 50 50 53 58 60 59 58 56 54 53 51 51 50 49 48 48 47 45 43 42 41 40 39 38 36 34 33 32 31 30 28 27 25 24 23 22 21 21 21 21 20 19 17 16 15 13 13 12 11 12 12 12
50 50 50 50 49 48 47 45 43 41 39 37 37 36 35 34 34 34 34 34 34 34 35 36 38 40 42 43 46 47 44 42 43 43 44 49 51 52 55 59 62 60 57 56 54 53 52 52 51 51 50 49 48 46 45 44 42 41 40 39 37 35 34 33 32 30 28 26 25 24 23 21 21 21 22 21 20 19 18 17 16 15 14 13 12 12 12 13
52 51 50 49 49 48 46 44 43 41 39 38 37 36 35 35 34 35 35 35 35 34 34 35 37 38 39 39 42 46 43 41 42 42 44 49 52 55 57 60 63 61 58 56 54 54 54 53 53 52 52 50 49 48 46 44 43 43 42 40 38 37 35 33 31 29 27 26 25 24 22 21 21 21 21 21 20 19 19 18 17 16 14 14 13 13 13 14
53 52 50 50 49 47 45 43 42 40 39 38 37 37 36 35 35 36 36 36 35 35 34 35 36 37 36 36 40 44 41 40 42 42 44 49 55 58 59 62 64 62 59 57 55 55 55 55 54 54 53 51 50 48 46 44 44 43 42 40 39 37 34 32 30 28 27 25 24 23 22 21 21 20 20 20 20 20 20 19 18 16 15 14 14 13 14 15
53 52 51 50 48 45 44 42 41 40 39 39 38 37 37 36 36 37 38 37 37 36 36 36 35 36 35 35 39 42 40 39 42 44 45 51 57 60 61 63 64 62 60 59 57 56 56 56 55 54 53 52 51 49 47 45 44 43 42 41 38 35 33 31 30 28 26 25 24 22 21 22 21 19 19 20 19 20 19 18 18 17 16 15 15 15 15 17
53 53 51 49 47 44 42 41 40 40 40 39 39 39 38 38 39 40 40 39 38 37 37 36 35 35 34 35 39 39 38 39 42 46 49 54 59 61 62 64 64 62 61 59 58 57 56 56 55 55 53 52 52 50 48 47 47 45 43 40 37 35 33 32 30 28 26 25 24 23 22 22 21 20 20 20 20 20 18 18 18 18 17 16 16 16 16 18
54 53 51 49 46 44 41 41 41 40 40 39 39 40 39 40 41 42 42 41 39 38 38 36 35 36 34 35 37 37 37 39 43 49 53 58 60 61 63 64 63 62 61 60 59 58 57 56 55 55 54 53 53 51 50 50 49 47 44 41 37 35 33 31 29 27 26 25 24 23 22 22 22 21 21 21 21 20 19 18 18 18 18 17 17 17 17 18
54 53 51 49 46 44 42 42 41 40 40 40 40 40 40 42 43 44 44 43 41 40 40 39 38 37 35 35 36 36 38 41 46 52 57 60 61 62 63 63 62 62 61 60 59 58 57 57 56 55 55 54 54 53 52 50 47 44 41 38 35 34 32 30 29 28 27 26 25 24 23 23 23 22 22 22 22 21 20 19 19 19 19 19 18 18 18 19
55 53 51 49 46 44 43 42 41 41 41 41 40 40 40 42 44 45 44 44 43 42 41 39 37 36 35 36 37 38 41 45 50 56 59 61 61 61 61 61 62 61 61 60 60 59 58 58 58 58 57 56 54 52 50 46 43 40 38 36 34 33 32 31 31 30 29 27 26 25 23 24 25 23 23 23 22 22 21 20 20 20 21 20 20 20 20 20
55 54 52 50 47 45 43 43 42 42 41 40 40 40 40 41 42 44 44 43 43 42 40 36 35 35 35 38 40 42 45 48 53 57 60 61 60 58 58 59 61 62 62 60 59 59 59 58 58 57 56 54 52 50 48 45 43 42 41 40 39 38 36 35 33 31 30 28 26 25 24 25 25 24 24 23 21 22 22 22 22 22 21 22 21 21 21 21
56 54 52 50 48 46 44 43 43 42 41 40 39 38 37 37 38 39 40 43 45 44 41 38 37 36 36 39 42 45 48 51 55 59 59 60 59 57 56 57 59 61 62 61 60 59 58 58 57 55 53 52 50 49 48 46 45 44 43 42 41 40 38 36 34 31 29 28 26 25 25 24 25 25 24 22 21 22 23 23 23 23 23 23 23 23 23 23
57 56 54 51 49 47 45 43 42 41 41 39 38 37 37 38 38 38 39 42 45 46 43 41 39 38 39 42 44 48 51 53 56 58 58 57 57 56 55 56 57 59 60 60 60 60 59 58 55 54 52 52 51 50 49 48 46 46 45 44 42 41 38 36 34 31 29 28 26 25 24 23 25 24 23 21 21 22 23 23 24 25 25 24 25 25 25 24
59 57 55 54 51 49 46 44 42 41 40 38 37 37 39 40 42 43 42 43 44 45 42 41 41 39 42 45 47 51 53 54 55 55 55 54 54 54 54 54 55 56 58 58 58 59 58 56 54 54 53 52 52 51 51 50 48 47 46 45 43 40 38 36 34 31 30 29 27 26 25 24 25 24 23 22 21 22 23 23 25 27 27 27 27 27 26 25
60 58 57 55 54 51 48 44 43 41 39 38 37 38 39 42 44 45 45 44 45 44 41 42 41 41 46 48 50 53 53 52 52 50 50 50 49 51 51 51 52 53 54 55 54 54 53 51 51 52 52 52 52 52 51 50 49 47 46 44 42 40 38 36 35 33 32 31 28 27 26 26 25 25 24 23 22 22 24 24 26 28 28 29 28 27 27 27
62 60 58 57 56 53 50 46 43 41 39 39 38 38 39 42 44 45 46 45 46 46 43 44 43 43 48 50 50 53 52 50 49 47 47 46 46 48 48 49 51 51 51 52 52 51 49 48 49 50 51 52 52 52 51 50 48 47 46 44 42 41 39 37 36 34 33 32 30 28 28 26 25 26 25 24 22 22 24 25 27 29 29 30 29 28 28 29
63 62 60 59 58 56 52 48 44 41 40 39 39 39 40 42 44 45 46 46 47 47 45 46 46 45 49 50 51 52 51 49 48 46 46 46 45 46 47 48 50 50 49 49 51 51 49 49 49 50 51 52 52 52 51 50 49 48 46 45 43 41 40 38 37 36 35 33 31 29 29 27 25 25 25 23 23 23 24 25 27 29 29 30 30 30 30 30
65 62 62 61 59 57 54 50 47 43 41 40 40 40 40 42 44 46 46 47 49 48 45 47 48 48 50 51 51 52 52 50 49 48 47 47 47 47 48 48 49 49 49 49 51 52 50 49 50 51 52 53 53 52 51 50 49 48 46 45 43 42 41 40 39 38 36 34 32 30 30 28 25 24 24 24 24 24 24 24 26 28 29 30 31 31 31 31
66 64 62 61 60 58 54 51 47 44 42 41 41 41 42 43 45 47 48 50 51 49 45 48 50 50 51 52 52 52 53 51 50 50 49 49 48 48 49 49 48 48 48 49 50 50 49 49 49 50 51 52 52 51 50 49 49 48 46 45 44 43 43 42 40 39 37 35 34 32 30 30 27 24 24 25 25 24 24 24 25 27 29 31 32 32 33 33
67 66 63 61 60 58 56 52 48 45 44 43 42 42 42 44 46 47 49 51 52 48 45 47 51 52 51 52 53 53 53 51 49 49 49 49 49 49 49 49 49 49 48 48 47 47 47 47 47 48 49 50 49 49 49 49 48 48 46 45 45 44 43 42 41 39 38 37 35 33 31 31 29 25 24 25 25 24 25 25 25 26 28 31 32 33 33 34
67 66 64 62 60 59 58 54 51 49 47 45 43 43 43 45 47 49 51 51 51 49 45 46 51 54 53 54 54 53 53 52 50 49 48 48 48 49 48 49 49 49 50 49 48 47 47 46 47 48 48 49 49 49 49 49 49 48 48 47 46 45 44 43 42 40 40 39 36 34 32 32 31 27 24 25 25 25 26 27 26 27 28 30 32 33 33 34
66 66 65 63 60 60 59 55 53 52 50 48 46 45 45 45 48 50 51 49 49 50 47 46 51 55 54 55 55 54 53 52 51 50 50 49 49 49 50 50 51 51 51 51 50 49 49 49 49 49 49 49 49 49 50 50 50 49 49 48 47 46 45 44 43 42 42 40 37 34 33 33 33 30 27 25 26 27 27 28 28 29 29 30 31 32 33 34
66 66 65 63 61 59 57 55 54 53 52 51 49 49 48 48 50 51 49 48 49 52 49 45 49 54 54 55 55 53 53 53 52 51 50 49 49 50 50 51 52 53 54 54 53 51 50 51 51 51 51 51 50 50 51 51 51 50 49 48 48 47 46 45 44 43 42 39 37 35 34 34 33 32 30 28 27 28 28 29 29 30 30 31 31 32 33 34
65 65 65 64 61 59 57 56 55 54 53 52 51 51 50 51 53 51 49 49 49 51 49 44 46 52 55 56 56 54 52 51 51 51 50 50 49 49 49 50 50 51 51 52 52 52 51 52 52 53 52 52 52 51 52 51 51 50 49 47 46 45 44 44 43 42 40 38 37 35 35 36 34 34 34 32 29 29 28 29 30 31 32 32 33 33 33 34
66 66 66 64 62 60 58 57 56 55 54 54 54 53 54 54 54 51 50 49 48 50 50 46 46 53 56 56 56 55 53 53 51 51 50 50 50 50 50 50 50 49 49 48 48 49 49 50 50 51 51 51 51 50 50 49 48 48 47 46 45 44 43 43 41 41 40 38 38 38 38 38 36 36 36 34 31 30 29 30 31 32 33 34 34 34 34 34
67 67 67 64 63 61 59 58 58 57 56 56 56 57 58 57 54 52 51 49 48 49 51 47 46 52 57 57 56 55 54 54 53 51 51 50 50 50 50 51 51 50 50 50 49 48 47 47 47 47 48 48 48 48 48 48 48 48 47 47 46 45 45 43 42 41 40 40 40 40 40 39 37 38 37 34 32 31 31 31 31 32 34 35 35 35 35 35
68 69 67 64 62 61 61 60 59 58 58 57 59 60 60 57 55 53 51 49 49 49 50 50 48 52 58 59 58 57 56 55 54 53 52 51 49 49 48 49 50 50 50 50 50 49 48 47 46 46 46 47 47 47 47 47 48 47 47 47 45 44 44 43 42 42 41 42 43 42 41 39 39 39 38 35 34 33 33 33 32 32 33 35 35 35 35 35
66 69 68 65 63 62 62 61 60 60 60 60 62 63 60 58 57 54 52 50 49 49 49 50 50 52 58 61 59 59 58 56 56 55 54 53 52 50 49 48 48 48 48 47 47 46 46 45 45 45 45 45 45 45 45 46 46 45 45 44 42 43 43 43 43 43 44 45 45 44 42 40 39 40 39 37 36 35 34 34 33 33 33 34 35 35 34 34
63 68 68 65 64 63 62 63 62 61 61 63 64 64 62 61 58 55 53 52 50 49 48 49 49 49 55 60 61 60 59 58 58 58 56 56 55 52 50 49 49 48 48 47 46 46 45 45 45 45 45 44 44 44 44 45 45 44 44 42 42 43 43 43 44 44 44 44 45 44 43 42 41 40 39 38 37 36 36 35 34 34 34 34 35 35 35 34
63 67 68 66 65 64 63 64 64 63 64 66 67 65 64 62 60 57 56 54 51 50 49 49 49 49 51 57 60 60 61 60 60 60 59 58 57 54 52 50 49 49 48 48 47 47 46 46 46 46 45 45 45 45 45 45 44 44 44 43 44 44 43 42 42 43 43 43 44 45 44 44 42 40 39 40 39 38 37 36 35 35 34 34 34 34 35 35
61 65 68 68 67 66 64 64 64 66 68 68 67 66 65 64 63 61 59 56 53 52 50 49 50 50 50 54 58 60 60 61 61 60 60 60 59 56 54 52 50 49 48 48 48 48 47 46 47 46 46 46 47 46 45 44 43 43 43 43 42 43 43 42 42 42 42 43 45 46 47 46 43 41 40 40 40 39 38 37 36 35 34 34 34 34 35 36
59 63 68 70 69 69 68 67 67 69 69 68 68 68 66 65 64 62 60 58 55 53 51 50 50 51 51 53 57 59 60 61 61 61 62 61 60 58 55 53 51 49 48 49 48 48 47 47 47 47 46 46 46 45 44 43 43 42 42 41 40 40 40 40 42 42 43 44 46 47 48 46 43 41 40 39 39 39 38 38 36 35 35 34 34 35 36 37
59 61 65 69 70 69 70 70 69 70 70 69 68 68 66 65 65 63 61 59 57 55 53 52 51 51 51 52 54 57 58 59 60 62 63 63 61 60 57 55 53 50 49 48 47 46 45 45 45 46 46 45 44 44 44 43 42 42 42 41 40 40 40 41 43 43 43 45 46 46 48 47 43 41 40 39 39 39 39 38 37 36 35 34 35 35 36 38
56 59 62 66 68 68 70 71 70 70 69 67 66 66 65 64 64 63 61 59 58 56 55 54 53 53 53 52 53 55 57 57 58 59 61 64 64 62 60 57 55 52 51 50 48 47 45 45 45 44 44 44 44 44 43 43 43 43 42 41 41 42 42 43 44 44 44 45 45 45 47 47 42 40 40 40 41 41 40 39 38 37 37 36 37 38 38 39
51 54 60 64 66 67 69 67 64 63 63 63 64 65 64 64 64 63 61 59 58 57 56 55 54 54 54 53 52 53 55 56 57 57 59 62 65 65 62 60 58 56 54 53 51 49 48 48 48 47 46 46 46 46 47 46 46 45 45 44 44 44 44 44 44 44 44 43 42 44 45 44 40 40 42 43 43 42 42 41 40 39 40 41 41 41 41 40
52 52 56 62 64 65 64 60 56 58 59 60 62 63 64 64 63 62 61 59 58 58 57 57 56 55 54 54 52 52 52 55 56 57 58 59 62 66 66 64 61 59 58 56 53 51 51 51 50 50 50 51 51 52 51 49 47 47 46 45 45 44 43 43 42 43 43 42 42 43 43 42 40 41 44 45 44 43 42 42 41 41 43 45 45 44 44 43
55 53 54 60 62 58 56 55 54 56 56 57 59 61 63 63 62 62 62 61 59 59 58 57 56 56 56 55 54 53 52 53 55 56 57 57 59 63 67 67 65 63 61 60 57 55 55 55 55 53 53 53 53 51 49 47 45 45 44 44 44 43 43 43 44 45 43 42 44 43 41 41 42 42 44 44 44 44 44 43 44 45 47 47 47 46 46 46
56 55 53 58 60 55 52 52 50 49 49 51 54 56 58 60 60 61 61 60 59 59 59 58 58 57 57 57 56 54 53 53 54 54 55 56 57 58 63 67 69 67 65 62 62 60 59 60 59 57 56 55 54 52 50 49 47 46 46 45 45 44 44 46 47 46 44 46 48 45 41 42 44 44 44 44 45 46 47 47 48 49 49 48 48 48 48 49
57 58 55 58 60 56 53 51 48 48 48 49 51 52 53 55 56 57 57 56 57 57 58 59 59 58 57 57 56 55 54 54 55 54 54 55 56 56 58 62 67 70 69 66 65 64 63 63 62 60 58 56 55 54 53 52 51 50 49 49 48 48 49 49 50 49 48 50 50 46 44 45 46 45 45 45 47 48 49 50 49 49 49 49 50 51 52 52
55 58 58 61 63 59 55 52 51 52 53 53 53 52 52 52 51 52 53 53 54 55 56 57 57 58 58 58 58 58 56 55 55 55 54 54 54 55 56 58 62 67 70 70 68 67 66 65 63 62 60 59 57 56 55 54 53 52 52 51 51 51 51 51 51 50 51 52 50 48 49 48 47 46 45 46 49 49 50 52 51 51 52 53 54 54 54 54
54 56 58 60 63 62 58 56 56 56 55 55 55 54 53 52 51 50 51 52 51 51 52 52 54 57 59 59 60 59 58 56 54 53 52 53 53 53 54 56 58 61 65 68 69 69 68 67 65 64 62 61 60 58 58 57 56 55 54 53 53 53 53 53 52 51 53 53 51 50 52 50 48 46 46 47 49 50 52 54 53 53 55 56 57 56 56 56
55 56 57 58 59 60 58 56 55 56 55 53 51 50 50 50 50 49 50 51 51 50 50 50 52 55 58 59 60 59 57 56 55 53 51 51 51 50 51 52 54 56 59 62 65 67 67 67 66 64 64 63 61 60 60 59 58 58 58 56 55 55 54 54 53 53 54 53 51 53 54 51 48 47 47 49 51 52 54 55 56 56 57 58 58 58 58 59
58 57 57 58 58 58 59 57 56 57 56 52 49 49 48 48 48 49 50 50 50 50 50 50 51 53 54 56 57 57 56 55 55 54 53 53 52 52 52 52 52 53 54 56 59 61 63 64 64 64 64 63 62 62 61 61 63 64 61 57 56 55 55 56 56 55 55 55 55 56 54 51 51 52 52 53 55 55 56 57 58 59 59 60 60 60 60 60
Wind_Direction
212 213 214 210 208 210 212 214 214 212 213 214 214 214 213 214 215 216 216 215 212 209 209 211 212 215 216 215 215 213 211 210 208 208 207 208 205 202 202 203 204 202 198 194 192 191 191 193 193 190 189 187 186 187 186 185 184 183 182 181 180 179 180 182 182 182 181 181 182 182 184 186 186 185 185 185 182 179 174 168 165 166 164 155 147 142 137 133
211 212 213 210 207 209 211 213 213 212 213 215 215 214 213 214 215 215 216 216 214 210 210 212 213 214 213 210 213 214 213 212 210 208 209 209 206 204 204 205 206 202 197 194 192 190 191 192 192 190 189 187 186 187 187 185 184 183 183 181 181 180 182 184 184 184 183 182 183 183 185 188 188 188 188 190 189 187 184 177 173 173 175 172 162 155 150 144
209 211 211 208 207 208 210 212 213 212 213 216 216 215 214 214 214 215 215 215 215 212 212 213 213 215 215 209 208 210 211 211 210 209 211 210 206 205 206 207 207 203 195 194 192 190 191 192 191 189 189 188 187 188 187 185 184 183 183 182 182 182 184 185 185 185 182 183 184 184 186 189 190 189 190 192 193 193 191 184 180 180 183 186 182 172 164 158
207 209 209 206 205 207 208 211 212 211 213 216 217 215 214 214 214 215 215 215 215 213 213 214 215 216 218 216 210 207 206 206 205 207 210 209 205 205 207 208 208 202 194 193 193 190 191 192 190 188 188 187 188 188 186 185 185 183 183 183 182 184 186 186 186 185 183 183 185 186 187 190 192 192 192 193 195 196 197 192 186 186 187 193 196 192 182 172
205 206 206 204 203 205 207 209 211 212 213 216 216 215 215 214 214 215 214 215 214 214 215 215 217 217 218 220 216 209 204 204 204 205 208 208 206 205 208 210 208 201 193 193 193 191 191 192 190 189 188 187 188 187 186 185 184 184 184 183 183 185 187 187 186 187 186 184 185 188 187 189 193 194 194 195 196 197 199 199 194 191 190 194 199 203 200 191
203 204 203 201 202 204 206 208 211 212 213 215 215 216 214 213 214 214 214 215 214 214 215 217 219 219 218 219 220 214 208 205 205 205 206 207 207 206 209 211 207 198 191 192 193 191 192 192 191 189 187 187 188 186 185 185 184 185 185 184 184 186 187 187 187 188 188 186 186 189 189 190 193 194 196 196 197 198 200 203 201 197 195 197 201 205 208 206
200 201 200 200 202 202 204 207 210 212 213 214 215 215 213 213 214 214 214 215 214 214 215 217 220 221 219 219 220 218 212 209 207 205 205 206 207 206 208 210 206 195 189 192 192 192 192 191 191 190 188 187 188 186 184 184 185 186 186 185 186 187 187 187 188 190 189 187 187 189 191 192 193 194 196 198 198 199 201 204 205 203 200 202 205 207 208 212
199 199 197 199 201 201 203 206 209 211 212 213 214 215 213 213 214 214 215 215 215 214 215 217 220 222 221 220 222 220 216 213 208 205 205 207 207 207 207 208 203 193 189 191 191 192 192 191 191 190 189 188 187 186 184 184 186 187 187 188 188 188 188 188 190 190 189 189 188 190 192 193 195 196 198 199 198 201 203 204 207 206 204 205 208 210 211 213
197 196 195 198 201 201 203 206 209 210 211 213 214 214 213 213 213 213 214 215 214 214 215 217 219 222 222 221 223 223 221 217 212 207 206 207 207 207 207 205 199 191 189 190 191 191 190 190 191 191 189 188 187 186 185 186 187 188 189 189 190 189 189 190 191 191 191 191 190 191 192 195 197 197 199 200 200 204 205 206 208 209 209 209 210 213 215 216
195 194 195 198 200 201 203 205 208 209 209 211 212 213 213 213 213 214 215 214 214 214 215 217 219 222 223 222 224 225 224 222 218 213 208 206 207 207 207 202 194 189 189 189 190 190 189 189 190 190 189 188 188 187 186 187 188 189 190 191 191 191 190 192 192 192 193 193 192 192 193 196 198 197 200 202 203 206 207 208 210 211 213 212 214 217 219 220
193 193 195 198 200 201 203 205 208 208 209 210 211 212 213 213 213 214 215 214 214 213 214 216 218 221 222 222 223 224 223 223 222 217 211 206 206 207 207 201 191 188 189 189 190 189 189 189 190 190 189 189 188 187 187 187 188 190 191 192 192 191 191 193 193 193 194 194 193 194 195 197 198 199 202 204 205 208 209 211 213 214 216 216 217 220 222 223
193 193 195 197 200 201 203 205 207 207 207 207 209 211 211 211 213 214 215 214 214 213 213 215 218 220 221 220 223 223 221 222 222 219 213 207 206 207 207 200 189 187 189 189 190 189 190 190 190 190 190 189 188 188 188 188 188 190 192 192 192 192 192 193 194 194 194 194 195 195 196 198 200 202 205 206 206 208 210 213 215 214 217 219 220 223 224 226
192 193 195 197 201 203 204 205 206 206 205 205 207 209 210 210 211 213 213 213 213 212 212 214 218 221 220 220 222 223 220 221 220 218 214 209 206 206 205 197 187 186 189 189 190 190 190 191 191 191 190 190 189 189 190 189 189 191 192 192 193 192 193 194 194 194 194 195 196 198 199 201 204 204 207 208 206 209 212 214 216 216 218 221 224 227 228 230
191 193 195 198 201 203 205 206 207 206 204 203 205 206 208 209 210 211 211 211 211 212 212 214 218 221 220 219 221 221 218 219 217 214 213 209 205 204 201 193 186 186 189 190 191 191 191 192 192 192 191 190 190 190 190 191 192 192 193 193 193 193 193 194 194 194 195 196 199 201 202 205 207 207 208 211 210 211 214 216 218 219 219 222 226 230 230 232
191 193 197 200 201 203 205 206 206 206 204 203 204 205 207 208 208 209 208 209 210 212 213 214 219 222 220 219 220 219 217 217 215 211 211 207 202 198 195 189 186 187 188 189 191 192 193 193 193 192 191 191 190 190 190 191 193 194 195 195 194 193 193 194 196 195 196 198 201 202 205 210 211 208 210 215 217 216 217 218 220 221 222 223 225 228 229 233
190 194 198 200 201 202 203 205 206 205 204 204 205 204 205 206 206 206 206 206 209 213 214 215 220 223 222 219 219 218 216 216 213 209 207 204 197 193 189 187 186 187 188 189 191 192 194 194 194 193 192 192 191 190 190 192 193 195 196 195 194 193 194 196 197 197 197 199 203 203 206 213 215 212 212 216 222 223 220 220 223 223 224 225 226 228 229 233
191 194 198 200 201 202 202 203 205 205 205 204 205 205 205 205 205 204 203 205 208 212 215 216 220 223 221 218 218 217 216 215 210 206 203 198 192 188 187 186 186 188 189 190 191 192 194 194 194 193 193 193 192 191 192 194 194 195 195 194 193 194 195 197 198 198 200 202 205 206 206 213 218 217 215 217 223 227 223 222 224 226 227 226 226 228 229 231
191 195 198 200 200 200 201 202 204 204 203 204 204 206 206 205 204 203 203 205 207 211 214 214 217 221 220 217 217 217 214 210 205 201 198 192 187 185 185 186 187 189 190 191 191 193 194 194 195 195 194 194 194 193 194 195 195 196 196 195 195 196 197 199 200 201 203 205 208 208 207 213 220 220 219 219 223 229 228 225 226 226 228 228 227 226 228 229
193 195 197 199 200 200 201 202 202 203 203 203 204 206 206 206 205 204 204 206 208 211 213 215 217 220 220 218 216 212 210 205 200 197 192 187 184 184 185 186 188 190 191 192 192 193 194 195 195 195 194 195 195 195 195 195 195 196 197 197 198 200 201 202 204 204 206 207 209 211 210 214 220 222 223 222 222 229 232 231 229 228 228 229 229 226 227 226
194 196 197 199 199 199 200 201 202 203 203 204 205 206 208 209 210 209 208 208 210 212 214 217 221 220 217 216 212 207 205 201 196 193 188 183 182 184 186 188 189 191 192 193 194 195 195 197 196 195 195 197 198 198 197 196 196 197 198 197 198 202 204 205 208 208 208 210 211 213 213 216 221 224 227 226 223 227 232 234 234 233 230 231 232 230 228 227
194 196 197 197 198 198 199 200 201 202 203 203 205 206 209 213 216 217 216 212 210 210 212 215 218 218 214 212 208 202 199 196 192 189 186 182 182 184 186 189 191 192 193 193 195 196 198 198 197 197 200 201 200 200 199 199 199 199 200 200 201 203 205 207 210 211 212 213 213 215 216 219 224 227 229 231 228 227 230 234 237 237 235 233 234 233 231 230
195 196 197 197 198 198 198 199 200 201 202 203 203 204 206 209 212 215 217 214 212 210 211 211 212 213 211 207 204 200 195 191 189 187 185 184 184 185 187 190 192 194 195 195 196 197 198 198 198 201 203 203 202 201 201 201 201 202 202 203 204 205 207 209 211 213 216 217 218 219 220 222 228 231 232 233 231 231 233 234 236 239 239 236 234 235 234 234
196 197 198 198 198 198 198 198 199 201 201 202 203 203 204 205 207 209 211 213 215 216 215 211 209 209 207 203 201 197 192 189 187 186 186 185 186 187 189 191 193 195 196 197 198 198 198 199 201 204 204 204 204 203 203 203 204 204 204 205 207 208 209 212 213 215 217 219 219 221 222 222 229 233 234 235 232 234 238 237 236 238 239 238 236 236 237 238
197 198 199 200 200 199 198 197 198 199 200 200 202 203 204 204 206 208 209 210 214 219 219 213 208 205 202 199 197 194 190 188 187 188 189 189 189 190 190 192 194 196 198 199 200 201 201 202 204 205 206 206 206 205 205 206 206 206 207 208 209 211 212 214 215 216 218 220 220 222 223 222 227 232 235 237 235 234 239 240 238 238 239 240 240 239 239 240
198 199 200 201 201 200 199 198 198 198 199 200 201 203 205 205 206 208 210 211 213 216 217 212 208 205 200 197 196 193 190 188 188 189 191 193 195 193 193 194 195 197 199 200 201 202 203 205 207 207 208 208 208 207 207 208 209 209 209 210 212 213 215 215 217 219 221 222 222 225 227 223 226 232 235 238 239 236 238 240 240 240 239 240 242 242 241 241
199 200 202 203 203 202 200 199 199 199 200 201 202 203 205 206 207 209 211 213 216 217 216 211 207 204 199 197 196 193 191 190 189 190 192 194 197 197 196 196 196 197 199 201 203 203 204 205 206 207 208 209 210 209 209 210 211 211 211 212 214 216 217 218 219 221 223 224 224 226 229 225 224 232 237 239 241 240 239 239 241 242 241 241 243 244 244 243
201 202 203 204 205 204 202 201 201 200 201 204 204 205 206 206 208 210 211 215 217 218 217 213 207 203 199 199 197 195 194 192 191 191 192 194 196 198 198 198 198 199 200 202 203 203 204 206 207 208 208 209 210 210 211 212 213 213 213 215 217 218 219 221 222 224 225 226 227 227 230 228 224 229 237 239 242 243 243 242 242 243 242 241 242 244 245 245
202 203 204 206 206 204 203 203 202 201 204 207 206 206 206 207 209 211 213 216 216 216 217 214 208 203 199 199 198 197 196 194 193 194 193 194 196 197 199 199 199 200 202 204 204 204 205 207 208 209 210 211 211 212 213 214 215 215 216 217 219 220 222 223 224 226 227 228 228 228 231 232 225 227 237 241 244 246 247 246 245 244 242 241 241 242 245 246
204 204 205 206 207 206 205 204 203 205 207 208 207 208 207 207 208 210 214 217 216 215 216 214 209 204 200 199 199 198 197 196 196 196 195 196 196 197 198 199 200 202 203 205 205 206 207 208 209 210 211 211 212 214 215 216 217 217 218 219 221 222 224 225 226 227 229 230 229 229 233 235 230 228 236 243 246 249 250 250 248 246 244 241 240 241 243 246
206 206 206 207 207 209 208 206 205 207 208 209 209 208 208 208 209 211 214 216 216 215 216 215 211 206 201 200 200 199 198 197 196 197 199 199 198 198 199 199 201 203 203 204 205 206 207 208 210 211 211 212 213 214 215 216 218 218 219 220 222 224 225 226 227 229 231 231 230 231 234 237 235 231 236 244 249 250 251 252 251 248 245 243 242 241 242 244
207 208 209 208 208 210 210 209 209 208 207 209 210 209 209 209 210 214 215 215 215 215 215 215 213 208 204 202 202 200 199 198 198 199 200 200 200 200 200 200 201 202 203 204 205 205 206 208 209 210 211 213 214 215 216 217 218 219 221 222 223 224 226 227 228 229 231 232 232 233 235 237 238 236 239 244 248 250 250 252 252 251 249 247 245 243 243 243
207 209 210 209 210 210 210 210 212 211 210 209 210 211 211 210 212 215 215 215 216 215 214 216 214 211 207 204 204 203 201 199 199 200 201 201 202 202 203 203 203 203 203 204 204 205 206 208 209 210 211 212 214 216 217 218 219 220 221 222 224 225 226 228 229 231 233 233 234 235 236 238 240 242 246 246 246 247 249 251 254 254 253 251 248 246 244 244
207 209 210 210 210 210 209 210 211 211 212 211 211 211 212 214 215 216 215 215 216 214 213 216 216 212 210 207 205 205 203 202 201 201 201 202 203 204 204 205 205 206 206 206 207 207 207 208 209 210 211 213 214 216 218 220 221 223 223 224 226 228 229 231 232 234 235 236 236 236 238 240 241 244 249 249 248 248 248 250 253 254 254 253 251 249 247 246
207 208 210 210 210 210 209 209 210 211 212 213 214 214 214 217 218 217 217 216 216 214 213 215 215 212 211 209 207 206 204 204 203 203 203 203 203 203 204 205 206 206 207 208 211 211 212 212 211 212 213 214 216 217 218 220 222 224 225 227 228 229 231 233 234 235 235 236 236 237 239 241 242 246 250 252 253 252 251 250 251 253 254 254 254 253 252 250
207 208 209 209 209 210 210 210 210 210 211 213 215 217 218 220 219 219 219 217 217 216 213 214 215 212 211 210 207 206 206 205 204 204 205 205 205 204 204 204 205 206 206 207 210 211 214 215 215 216 217 217 218 218 219 220 221 222 222 224 225 227 229 230 231 233 233 234 236 238 241 242 244 247 251 254 256 256 255 254 253 253 254 254 254 254 254 254
208 208 208 208 208 210 210 211 211 211 212 214 216 219 220 222 222 222 221 219 218 218 215 214 214 213 213 211 208 206 206 206 206 205 205 205 205 205 205 206 206 207 208 209 210 210 212 214 215 216 218 218 219 219 220 221 222 223 224 224 226 228 230 231 233 234 235 237 239 240 242 243 245 249 252 255 257 257 257 257 256 255 255 254 254 253 253 253
208 208 208 208 208 209 210 211 212 212 213 215 218 221 222 223 223 223 223 222 220 221 219 216 216 215 213 213 211 208 207 207 207 207 206 205 205 204 205 206 207 208 208 210 212 213 213 215 216 217 218 219 220 220 221 222 223 224 226 227 228 230 231 232 234 235 236 238 239 240 242 243 246 250 253 256 257 257 257 257 257 256 254 254 254 254 253 252
208 208 208 208 208 208 210 211 211 212 214 216 220 222 223 224 225 223 223 223 222 222 221 219 219 218 216 215 213 211 210 209 209 208 207 207 206 204 204 206 207 208 209 209 211 213 214 216 218 219 220 221 221 222 223 223 224 225 226 226 228 230 231 232 234 236 237 239 241 242 243 244 246 250 253 255 256 255 255 256 257 256 254 252 252 253 254 253
209 208 207 206 207 207 208 210 211 212 214 217 220 223 223 224 225 225 224 224 223 222 221 220 219 219 218 217 216 215 213 212 211 210 209 209 208 205 204 205 206 208 210 210 212 213 214 216 218 219 221 222 222 223 223 224 225 226 226 226 228 230 232 233 235 237 239 241 243 244 244 245 246 248 250 252 253 254 254 255 255 255 254 253 253 253 254 255
212 210 208 207 206 207 208 209 210 212 216 219 222 223 224 225 225 225 225 225 225 223 222 221 220 220 220 219 218 218 217 215 214 213 212 211 210 207 205 206 207 208 211 212 213 214 215 217 219 219 221 222 223 223 224 225 227 228 229 230 231 233 235 236 238 239 240 242 244 244 245 245 245 245 247 249 252 253 254 255 255 255 254 254 253 253 253 253
215 212 209 209 209 209 209 210 211 215 219 222 223 223 224 225 225 225 225 225 226 225 223 222 220 220 221 220 220 220 220 219 217 216 214 213 212 209 207 207 208 209 212 213 214 215 217 218 220 221 222 223 224 224 225 226 228 228 229 230 232 234 235 236 237 238 239 241 243 244 244 244 244 244 245 247 250 252 253 255 255 255 254 253 253 252 252 253
217 214 211 211 212 213 214 215 217 219 222 223 224 225 226 226 226 227 226 226 226 226 225 223 221 220 221 222 222 222 223 222 220 218 217 215 213 212 210 210 210 211 214 215 215 217 219 221 222 224 224 224 225 225 226 227 228 228 229 229 230 232 233 235 236 237 238 240 242 243 244 243 243 245 246 246 248 250 251 253 253 254 253 253 253 252 252 253
217 217 215 214 214 215 216 218 221 223 224 225 225 226 228 228 227 228 227 227 227 227 225 223 222 221 221 222 223 223 224 225 224 222 219 217 216 214 212 212 213 215 216 217 217 218 220 222 224 225 226 226 227 227 227 228 228 229 228 229 231 233 234 236 237 237 238 239 241 243 245 244 244 245 247 247 247 248 250 251 252 253 254 254 254 254 253 254
214 215 216 216 216 217 219 220 223 224 225 226 227 228 229 229 229 229 228 227 228 228 227 225 222 221 221 222 223 224 225 225 225 224 222 220 218 217 215 214 215 217 218 218 218 219 222 224 224 224 226 226 226 226 226 226 227 228 228 229 231 232 234 235 236 238 239 239 241 244 245 245 245 246 246 247 247 248 250 252 254 256 257 257 257 257 257 257
211 210 213 217 218 219 221 223 224 226 225 225 226 228 229 229 229 229 229 229 229 228 228 226 223 222 221 222 223 224 225 226 226 225 224 223 221 219 218 217 217 218 219 220 221 223 226 227 226 227 227 226 225 225 225 226 229 230 230 230 232 234 236 238 239 241 241 240 241 244 245 245 245 245 245 246 248 249 251 254 256 259 259 259 259 261 262 263
211 207 207 214 218 218 220 220 221 222 223 224 226 227 228 229 229 228 229 229 228 228 227 226 224 222 222 222 222 223 225 226 226 225 225 225 224 223 221 220 219 219 219 220 222 224 227 227 227 228 229 228 228 228 228 230 233 234 234 235 237 239 240 242 243 242 242 243 242 242 243 244 243 243 245 247 250 253 253 255 257 258 259 260 262 265 267 268
213 209 204 210 217 217 216 215 214 216 217 220 224 226 227 229 228 228 228 228 227 226 227 226 224 223 223 223 223 224 224 225 227 226 225 226 226 225 224 223 222 222 222 222 223 225 227 227 226 227 228 229 230 230 229 230 233 234 234 235 237 239 240 242 243 241 241 243 241 238 240 242 242 243 246 249 252 255 255 255 256 258 260 263 266 268 269 270
214 214 207 208 214 217 215 213 212 216 218 219 220 221 224 227 228 228 228 227 226 226 226 226 225 224 224 223 224 225 225 225 226 226 225 226 227 227 227 226 224 224 224 225 226 226 228 227 227 227 229 230 231 231 231 232 233 234 234 234 235 237 238 239 240 239 240 242 241 239 240 241 242 244 247 250 253 257 259 260 261 264 266 268 269 269 269 271
212 215 212 210 212 216 218 219 220 222 223 224 223 222 223 224 226 228 229 228 228 228 228 229 228 226 224 223 224 225 226 226 227 227 226 226 227 228 228 229 228 226 226 227 228 229 229 229 228 228 229 230 232 233 233 234 234 235 236 237 238 240 241 241 241 242 243 244 243 243 242 241 243 247 250 254 258 260 263 265 266 268 268 268 268 269 270 272
210 213 214 214 215 217 220 223 226 227 226 226 226 227 227 227 227 226 226 227 228 229 230 231 231 229 226 224 223 224 226 227 228 229 229 229 229 229 230 231 231 230 229 229 230 231 231 231 230 230 231 232 233 234 234 235 236 236 237 238 239 241 242 242 242 243 245 246 245 247 247 243 244 249 253 257 261 262 264 266 267 267 267 268 268 270 271 273
207 210 213 214 215 217 219 221 224 226 227 227 226 227 227 227 227 226 227 227 229 230 231 233 233 231 227 225 224 224 225 227 227 228 229 230 230 230 232 233 233 233 232 232 232 233 233 233 233 234 235 235 235 236 237 238 239 239 238 238 239 241 242 243 244 246 248 249 249 250 250 246 246 252 256 258 261 262 263 265 266 267 268 269 271 272 273 274
206 207 209 212 214 215 216 218 221 223 226 226 225 226 226 225 226 227 228 228 228 229 230 232 232 231 229 227 226 225 225 226 227 228 228 229 229 228 230 231 232 234 235 235 235 235 235 236 236 237 239 239 238 239 240 242 242 241 239 238 241 242 244 246 247 248 251 253 253 253 252 251 252 253 255 257 259 260 262 264 266 267 268 269 270 272 273 274
Height
5694 5699 5703 5708 5713 5717 5720 5724 5728 5732 5735 5738 5741 5744 5747 5750 5753 5756 5758 5761 5764 5768 5772 5774 5777 5779 5781 5784 5786 5789 5791 5795 5798 5802 5806 5809 5812 5816 5820 5824 5828 5831 5834 5838 5841 5844 5848 5852 5855 5858 5862 5865 5868 5870 5873 5875 5877 5879 5881 5882 5883 5885 5886 5888 5889 5891 5892 5893 5894 5895 5896 5897 5898 5899 5901 5902 5902 5903 5903 5904 5904 5905 5905 5906 5906 5906 5906 5906
5691 5696 5700 5705 5710 5714 5718 5721 5725 5729 5732 5735 5738 5742 5745 5748 5750 5753 5756 5758 5761 5765 5768 5771 5774 5777 5779 5781 5784 5786 5789 5792 5795 5800 5803 5806 5811 5816 5819 5822 5826 5828 5832 5837 5840 5842 5846 5850 5854 5857 5861 5864 5867 5869 5872 5874 5876 5878 5880 5881 5882 5884 5885 5887 5889 5890 5891 5892 5893 5894 5896 5897 5898 5899 5900 5901 5902 5902 5903 5903 5904 5904 5905 5905 5906 5906 5906 5906
5688 5692 5697 5702 5707 5711 5715 5718 5722 5726 5730 5733 5736 5739 5742 5745 5748 5751 5753 5756 5759 5762 5765 5769 5772 5774 5776 5779 5782 5784 5787 5790 5794 5798 5800 5803 5808 5813 5817 5820 5823 5826 5830 5835 5838 5840 5843 5847 5851 5855 5859 5863 5865 5868 5871 5873 5875 5877 5878 5879 5881 5883 5885 5887 5888 5890 5891 5892 5893 5894 5895 5896 5897 5898 5899 5900 5901 5902 5902 5903 5903 5904 5904 5905 5905 5906 5906 5906
5684 5689 5694 5699 5704 5708 5712 5716 5719 5723 5727 5730 5733 5736 5740 5743 5745 5748 5751 5753 5757 5760 5763 5766 5769 5771 5774 5777 5780 5782 5785 5789 5793 5795 5797 5801 5806 5810 5814 5818 5820 5823 5827 5833 5836 5838 5841 5845 5848 5852 5856 5860 5863 5866 5869 5872 5874 5875 5876 5878 5879 5882 5884 5886 5888 5889 5890 5891 5892 5893 5894 5895 5896 5897 5898 5899 5900 5901 5901 5902 5902 5903 5904 5904 5905 5905 5906 5905
5680 5685 5691 5696 5701 5705 5709 5713 5717 5721 5724 5727 5730 5734 5737 5740 5743 5746 5749 5751 5754 5757 5760 5763 5766 5768 5771 5775 5778 5780 5783 5788 5791 5792 5795 5800 5803 5807 5811 5814 5817 5820 5825 5831 5834 5836 5839 5844 5847 5850 5854 5858 5861 5864 5867 5870 5872 5873 5874 5876 5878 5880 5883 5885 5887 5888 5889 5890 5891 5892 5893 5894 5895 5896 5897 5898 5899 5900 5900 5901 5902 5902 5903 5903 5904 5905 5905 5905
5677 5682 5688 5693 5698 5702 5706 5710 5714 5718 5721 5724 5728 5731 5735 5738 5740 5743 5746 5749 5752 5755 5757 5760 5762 5765 5769 5773 5776 5779 5783 5786 5787 5790 5794 5797 5801 5804 5808 5811 5814 5817 5822 5828 5832 5835 5838 5842 5846 5849 5852 5857 5860 5863 5866 5869 5871 5872 5873 5875 5877 5879 5881 5883 5885 5887 5888 5889 5890 5891 5892 5893 5895 5896 5897 5897 5898 5899 5899 5900 5901 5901 5902 5903 5903 5904 5904 5905
5674 5679 5684 5690 5694 5699 5703 5707 5711 5714 5718 5722 5725 5728 5732 5735 5738 5741 5744 5746 5749 5752 5755 5757 5759 5762 5766 5770 5774 5778 5781 5783 5784 5788 5792 5795 5798 5802 5805 5808 5811 5815 5820 5826 5830 5833 5836 5841 5845 5849 5852 5856 5859 5862 5864 5867 5869 5871 5872 5874 5875 5877 5880 5882 5884 5885 5887 5888 5889 5890 5891 5893 5894 5895 5896 5897 5897 5898 5899 5899 5900 5900 5901 5902 5903 5903 5904 5904
5671 5676 5682 5687 5691 5696 5700 5704 5708 5711 5715 5719 5722 5726 5729 5733 5736 5738 5741 5744 5747 5750 5752 5754 5757 5760 5763 5768 5771 5774 5777 5779 5781 5786 5789 5792 5795 5798 5802 5805 5808 5813 5818 5824 5828 5831 5835 5839 5844 5848 5851 5855 5859 5861 5863 5865 5867 5869 5871 5873 5874 5876 5878 5880 5882 5884 5886 5886 5888 5889 5890 5892 5893 5894 5895 5896 5897 5897 5898 5899 5899 5899 5900 5901 5902 5903 5903 5904
5668 5674 5679 5684 5688 5692 5697 5701 5705 5709 5712 5716 5719 5723 5727 5730 5733 5736 5739 5741 5744 5747 5749 5752 5755 5757 5760 5764 5767 5770 5773 5775 5779 5783 5785 5788 5791 5795 5798 5802 5806 5811 5816 5821 5825 5829 5833 5838 5842 5846 5850 5854 5857 5860 5861 5863 5865 5868 5870 5871 5873 5875 5877 5879 5881 5883 5884 5885 5886 5888 5889 5890 5892 5893 5894 5895 5896 5896 5897 5897 5898 5898 5899 5900 5901 5902 5902 5903
5666 5671 5675 5680 5685 5689 5694 5698 5702 5706 5709 5713 5716 5720 5724 5728 5731 5734 5736 5739 5742 5745 5747 5749 5752 5754 5757 5761 5764 5767 5770 5772 5775 5778 5781 5785 5789 5792 5795 5798 5803 5808 5814 5819 5823 5827 5831 5835 5839 5844 5848 5852 5855 5857 5859 5861 5863 5866 5868 5870 5872 5873 5875 5877 5879 5881 5883 5884 5885 5887 5888 5889 5891 5892 5893 5894 5894 5895 5896 5896 5897 5897 5898 5899 5900 5900 5901 5902
5663 5668 5672 5677 5682 5687 5691 5695 5699 5703 5707 5710 5714 5717 5721 5725 5728 5731 5733 5736 5739 5742 5744 5746 5749 5752 5754 5758 5760 5763 5767 5769 5771 5775 5778 5782 5785 5788 5791 5795 5800 5807 5813 5818 5822 5825 5829 5832 5836 5841 5845 5849 5852 5854 5856 5858 5861 5863 5866 5868 5870 5872 5873 5875 5877 5879 5881 5883 5884 5886 5887 5888 5890 5891 5892 5892 5893 5894 5895 5896 5896 5897 5897 5897 5898 5899 5900 5901
5660 5665 5669 5674 5679 5684 5688 5692 5696 5700 5704 5707 5711 5714 5718 5722 5725 5728 5730 5733 5736 5739 5741 5743 5746 5748 5751 5755 5757 5758 5763 5766 5768 5772 5775 5778 5781 5785 5789 5792 5798 5805 5811 5815 5819 5823 5826 5830 5834 5838 5842 5846 5849 5851 5853 5855 5858 5861 5863 5865 5868 5870 5871 5873 5875 5877 5879 5881 5883 5884 5886 5887 5888 5889 5890 5891 5892 5893 5894 5894 5895 5896 5896 5896 5897 5898 5899 5900
5657 5662 5667 5672 5676 5681 5685 5689 5693 5697 5701 5704 5708 5712 5715 5719 5722 5725 5727 5730 5733 5736 5738 5740 5743 5745 5748 5752 5753 5756 5761 5763 5766 5769 5772 5775 5778 5782 5786 5790 5795 5802 5808 5813 5817 5820 5824 5827 5832 5836 5840 5844 5846 5849 5851 5854 5856 5858 5861 5863 5865 5867 5869 5871 5874 5876 5878 5880 5881 5883 5884 5886 5887 5888 5889 5890 5891 5891 5892 5893 5894 5895 5895 5895 5896 5896 5897 5898
5654 5659 5665 5669 5674 5678 5683 5687 5691 5694 5698 5702 5705 5709 5712 5716 5719 5722 5725 5728 5730 5733 5736 5738 5740 5742 5746 5749 5750 5753 5758 5761 5764 5766 5769 5772 5775 5778 5782 5787 5793 5799 5805 5810 5814 5818 5821 5825 5829 5833 5837 5840 5843 5846 5850 5853 5855 5857 5859 5860 5863 5865 5868 5871 5872 5874 5876 5878 5879 5881 5883 5884 5885 5887 5888 5888 5889 5890 5890 5892 5893 5894 5894 5894 5894 5895 5896 5896
5652 5657 5662 5666 5671 5676 5680 5684 5688 5691 5695 5699 5702 5706 5710 5713 5716 5719 5722 5725 5728 5730 5733 5735 5737 5740 5743 5746 5748 5751 5755 5759 5761 5763 5766 5769 5772 5775 5779 5784 5790 5796 5801 5806 5811 5815 5819 5822 5826 5830 5834 5837 5840 5843 5846 5850 5852 5855 5856 5858 5861 5865 5867 5869 5871 5873 5875 5876 5877 5879 5881 5882 5884 5885 5886 5887 5888 5888 5889 5890 5892 5893 5893 5893 5893 5894 5894 5895
5649 5655 5659 5664 5668 5673 5677 5681 5685 5689 5693 5696 5700 5703 5706 5709 5713 5716 5719 5722 5725 5728 5730 5733 5735 5737 5740 5743 5745 5749 5753 5756 5758 5761 5763 5766 5768 5772 5777 5782 5788 5793 5798 5803 5808 5812 5816 5820 5824 5828 5831 5835 5838 5841 5844 5846 5849 5852 5854 5857 5861 5864 5866 5868 5869 5871 5873 5874 5876 5878 5879 5880 5882 5883 5884 5885 5886 5887 5888 5889 5890 5891 5892 5892 5892 5893 5893 5893
5647 5652 5656 5661 5666 5670 5675 5678 5682 5686 5690 5693 5697 5700 5703 5706 5709 5712 5715 5719 5722 5725 5728 5731 5733 5734 5737 5741 5744 5747 5750 5753 5755 5758 5760 5762 5766 5770 5775 5781 5786 5791 5795 5800 5804 5809 5814 5818 5822 5826 5829 5832 5835 5838 5840 5842 5844 5848 5851 5856 5859 5861 5864 5866 5868 5870 5871 5873 5874 5876 5877 5879 5879 5881 5882 5883 5884 5885 5886 5887 5889 5889 5890 5891 5891 5891 5892 5892
5645 5649 5654 5658 5663 5668 5672 5675 5679 5683 5687 5690 5693 5697 5700 5703 5706 5709 5712 5715 5719 5722 5724 5727 5729 5732 5736 5740 5742 5745 5747 5750 5752 5754 5756 5759 5764 5769 5774 5779 5784 5789 5793 5797 5801 5806 5811 5815 5819 5823 5827 5830 5832 5835 5837 5840 5845 5849 5853 5856 5859 5861 5863 5865 5866 5868 5869 5870 5872 5873 5876 5877 5877 5878 5880 5881 5882 5883 5884 5886 5887 5888 5888 5889 5889 5890 5890 5891
5642 5647 5651 5656 5661 5665 5669 5673 5677 5680 5683 5687 5690 5694 5697 5700 5703 5706 5710 5713 5716 5719 5722 5726 5729 5733 5737 5739 5740 5742 5744 5746 5749 5752 5754 5757 5762 5767 5772 5776 5781 5786 5791 5795 5799 5803 5808 5812 5815 5819 5823 5827 5831 5834 5837 5842 5847 5851 5853 5856 5858 5860 5861 5862 5863 5865 5866 5868 5869 5871 5874 5874 5875 5876 5877 5879 5880 5881 5882 5883 5884 5885 5886 5887 5887 5888 5888 5889
5640 5644 5649 5653 5658 5663 5667 5670 5674 5677 5681 5685 5689 5692 5695 5698 5701 5704 5708 5711 5714 5718 5722 5727 5729 5732 5735 5736 5736 5739 5741 5743 5747 5750 5753 5756 5760 5765 5770 5774 5779 5783 5788 5793 5797 5801 5805 5809 5813 5818 5823 5827 5830 5834 5837 5841 5844 5846 5849 5851 5853 5855 5857 5858 5860 5862 5864 5865 5868 5869 5871 5872 5873 5874 5875 5876 5878 5879 5880 5881 5882 5883 5884 5885 5885 5886 5886 5887
5637 5642 5646 5651 5656 5660 5664 5668 5671 5675 5680 5683 5687 5691 5695 5699 5702 5705 5708 5709 5711 5715 5719 5723 5726 5728 5731 5733 5735 5737 5739 5741 5744 5748 5751 5754 5758 5763 5768 5773 5777 5781 5785 5790 5794 5799 5803 5807 5813 5818 5821 5824 5828 5832 5835 5838 5841 5843 5845 5847 5849 5851 5853 5856 5857 5860 5862 5864 5866 5867 5868 5870 5871 5872 5873 5874 5876 5877 5877 5878 5879 5881 5882 5882 5883 5883 5884 5884
5634 5639 5644 5648 5653 5657 5662 5666 5669 5673 5677 5681 5685 5689 5693 5697 5701 5705 5708 5709 5710 5712 5716 5719 5722 5725 5728 5730 5733 5735 5737 5740 5743 5746 5750 5753 5757 5761 5766 5771 5776 5780 5784 5788 5791 5795 5799 5805 5811 5815 5817 5820 5824 5828 5831 5835 5837 5840 5842 5844 5846 5849 5851 5853 5856 5858 5860 5861 5863 5865 5866 5868 5868 5869 5871 5872 5874 5874 5875 5876 5877 5878 5879 5880 5881 5881 5882 5882
5632 5636 5641 5645 5650 5655 5659 5663 5667 5671 5676 5680 5683 5686 5689 5693 5696 5700 5703 5707 5710 5712 5714 5717 5719 5721 5724 5727 5730 5733 5736 5738 5742 5746 5749 5753 5756 5760 5765 5770 5774 5778 5782 5786 5790 5793 5798 5803 5807 5810 5814 5817 5821 5824 5828 5831 5833 5836 5839 5841 5844 5847 5849 5851 5853 5856 5857 5859 5860 5862 5864 5865 5865 5866 5868 5869 5871 5872 5872 5874 5875 5875 5876 5877 5878 5879 5880 5880
5629 5634 5638 5642 5647 5652 5656 5661 5665 5669 5673 5677 5680 5683 5686 5689 5692 5695 5698 5702 5706 5709 5712 5714 5716 5718 5721 5724 5727 5730 5734 5737 5740 5745 5749 5753 5756 5759 5763 5768 5772 5776 5780 5785 5789 5793 5798 5802 5805 5808 5811 5814 5818 5821 5824 5827 5830 5833 5836 5839 5842 5844 5847 5849 5851 5852 5854 5855 5857 5859 5860 5862 5863 5863 5865 5866 5868 5869 5870 5871 5872 5872 5873 5874 5875 5876 5877 5878
5626 5631 5635 5640 5644 5649 5654 5659 5663 5667 5670 5673 5677 5680 5683 5686 5689 5692 5695 5699 5701 5704 5707 5711 5713 5715 5718 5722 5725 5728 5732 5735 5738 5742 5747 5751 5755 5758 5762 5765 5769 5774 5779 5783 5787 5790 5795 5799 5802 5806 5809 5813 5816 5819 5822 5825 5828 5831 5834 5837 5839 5841 5843 5845 5848 5849 5851 5853 5855 5856 5857 5859 5860 5861 5862 5863 5865 5867 5867 5868 5869 5869 5870 5871 5872 5873 5874 5875
5623 5628 5632 5637 5642 5646 5651 5656 5661 5664 5668 5671 5674 5677 5679 5683 5686 5688 5692 5695 5697 5700 5703 5707 5709 5712 5717 5720 5722 5726 5729 5732 5735 5739 5744 5748 5753 5757 5760 5764 5768 5772 5777 5780 5783 5786 5791 5795 5799 5802 5806 5810 5813 5817 5819 5822 5825 5828 5831 5834 5836 5838 5841 5843 5845 5846 5848 5850 5852 5853 5853 5855 5858 5858 5859 5861 5862 5863 5865 5865 5866 5866 5868 5869 5870 5870 5871 5872
5620 5625 5630 5634 5639 5644 5650 5655 5658 5662 5666 5669 5671 5674 5676 5679 5682 5685 5688 5690 5692 5696 5700 5703 5706 5710 5714 5718 5721 5724 5726 5729 5734 5737 5741 5745 5750 5754 5758 5762 5766 5770 5774 5776 5779 5784 5789 5793 5795 5799 5802 5805 5809 5813 5816 5819 5822 5825 5828 5831 5833 5835 5837 5839 5841 5842 5844 5847 5848 5850 5851 5852 5855 5856 5857 5858 5859 5860 5862 5863 5863 5864 5865 5866 5867 5867 5868 5869
5617 5622 5627 5632 5637 5643 5648 5652 5657 5661 5664 5665 5668 5670 5673 5676 5679 5681 5683 5685 5688 5693 5697 5700 5704 5708 5711 5715 5719 5722 5726 5729 5733 5735 5739 5743 5747 5751 5755 5760 5764 5768 5772 5775 5779 5784 5787 5790 5793 5796 5799 5803 5807 5811 5813 5816 5818 5822 5825 5827 5829 5831 5833 5835 5837 5839 5841 5843 5844 5846 5848 5849 5852 5854 5854 5855 5856 5857 5858 5859 5860 5861 5862 5863 5864 5865 5865 5866
5614 5619 5624 5629 5634 5640 5644 5649 5654 5657 5659 5662 5664 5667 5669 5672 5675 5677 5678 5681 5685 5691 5695 5698 5702 5705 5709 5713 5716 5720 5724 5728 5731 5735 5738 5741 5744 5748 5752 5757 5761 5764 5768 5773 5778 5782 5785 5787 5790 5793 5797 5801 5805 5808 5810 5813 5815 5818 5821 5823 5825 5827 5829 5831 5833 5835 5837 5838 5840 5843 5845 5845 5848 5852 5852 5852 5853 5854 5855 5856 5857 5858 5859 5860 5861 5862 5862 5863
5611 5616 5621 5626 5632 5637 5641 5646 5648 5650 5654 5658 5661 5663 5666 5668 5670 5671 5673 5678 5683 5689 5693 5697 5700 5703 5707 5710 5714 5718 5722 5725 5729 5733 5736 5739 5743 5746 5749 5753 5756 5760 5764 5768 5772 5776 5780 5784 5787 5790 5794 5798 5800 5803 5806 5809 5811 5814 5816 5818 5821 5823 5825 5827 5829 5831 5832 5834 5837 5840 5842 5843 5845 5848 5849 5849 5850 5851 5852 5852 5853 5855 5856 5857 5858 5859 5860 5860
5608 5613 5618 5624 5629 5634 5639 5642 5643 5647 5651 5654 5656 5659 5661 5664 5666 5667 5671 5678 5683 5686 5690 5694 5698 5702 5706 5709 5712 5716 5719 5722 5726 5729 5732 5736 5740 5743 5746 5748 5751 5755 5760 5764 5767 5771 5775 5778 5782 5786 5790 5793 5796 5798 5801 5803 5806 5809 5812 5814 5817 5818 5821 5823 5825 5827 5828 5831 5835 5837 5839 5839 5841 5844 5847 5847 5848 5848 5848 5849 5849 5851 5852 5853 5854 5855 5856 5857
5604 5609 5615 5620 5625 5630 5634 5636 5639 5644 5647 5649 5652 5654 5657 5659 5660 5664 5671 5676 5679 5682 5688 5693 5696 5701 5705 5708 5711 5714 5717 5719 5723 5726 5730 5734 5737 5740 5744 5746 5749 5753 5756 5759 5763 5767 5771 5774 5778 5781 5784 5788 5791 5793 5796 5799 5802 5804 5807 5810 5811 5814 5816 5819 5821 5823 5825 5829 5832 5834 5835 5836 5838 5841 5842 5844 5845 5845 5845 5846 5846 5847 5848 5849 5850 5851 5852 5853
5600 5605 5610 5616 5621 5625 5628 5631 5635 5639 5643 5646 5648 5650 5653 5654 5656 5663 5668 5672 5676 5682 5688 5691 5695 5700 5703 5705 5707 5711 5715 5718 5721 5723 5727 5730 5734 5737 5741 5745 5749 5752 5756 5760 5762 5764 5767 5769 5773 5776 5779 5783 5786 5789 5792 5796 5799 5801 5804 5807 5809 5812 5814 5816 5819 5821 5824 5826 5829 5830 5831 5833 5836 5837 5837 5839 5841 5842 5843 5843 5843 5844 5844 5845 5846 5847 5848 5849
5596 5601 5606 5611 5616 5619 5622 5626 5631 5635 5638 5641 5643 5646 5648 5650 5656 5661 5665 5670 5675 5680 5685 5688 5691 5695 5699 5701 5705 5708 5712 5714 5718 5721 5724 5726 5729 5732 5736 5741 5746 5750 5755 5759 5761 5764 5767 5769 5772 5775 5777 5781 5784 5787 5791 5794 5797 5799 5802 5805 5807 5809 5811 5814 5816 5818 5820 5823 5824 5825 5827 5829 5833 5833 5833 5835 5838 5839 5840 5840 5840 5840 5840 5841 5841 5843 5844 5845
5591 5596 5601 5606 5610 5614 5618 5622 5626 5630 5633 5636 5639 5641 5644 5648 5654 5658 5662 5668 5673 5676 5681 5685 5688 5691 5694 5697 5701 5705 5708 5711 5714 5718 5720 5723 5727 5731 5734 5739 5743 5747 5751 5754 5757 5762 5766 5769 5773 5775 5778 5780 5782 5785 5788 5790 5791 5793 5796 5799 5801 5804 5806 5809 5811 5813 5815 5818 5819 5820 5823 5826 5829 5829 5830 5832 5834 5835 5835 5836 5837 5837 5837 5838 5838 5839 5840 5841
5587 5592 5596 5601 5606 5610 5614 5617 5621 5625 5628 5631 5634 5637 5642 5647 5652 5656 5661 5666 5670 5673 5677 5681 5683 5686 5689 5693 5697 5700 5704 5708 5712 5714 5717 5721 5725 5729 5733 5737 5741 5745 5748 5752 5755 5758 5762 5766 5769 5772 5774 5777 5779 5781 5784 5785 5787 5790 5792 5795 5799 5801 5803 5805 5807 5809 5812 5813 5814 5817 5820 5823 5825 5825 5826 5828 5830 5831 5831 5832 5833 5834 5834 5834 5834 5835 5836 5837
5583 5588 5592 5597 5601 5605 5609 5613 5617 5620 5624 5627 5629 5634 5640 5643 5647 5654 5659 5663 5667 5669 5674 5677 5679 5682 5685 5689 5694 5698 5701 5705 5708 5711 5715 5718 5721 5725 5731 5735 5738 5743 5746 5750 5754 5757 5760 5763 5766 5768 5770 5772 5775 5777 5779 5781 5784 5787 5790 5794 5797 5797 5799 5801 5802 5804 5806 5807 5810 5813 5817 5820 5821 5822 5823 5825 5826 5826 5827 5827 5828 5830 5830 5831 5831 5831 5832 5833
5579 5584 5588 5592 5596 5600 5604 5608 5612 5616 5619 5622 5626 5631 5635 5639 5644 5651 5655 5659 5663 5666 5670 5674 5676 5680 5684 5687 5692 5696 5698 5701 5704 5708 5712 5715 5718 5723 5728 5732 5736 5740 5743 5746 5749 5753 5757 5759 5761 5764 5766 5768 5771 5773 5775 5777 5780 5783 5787 5790 5790 5790 5793 5796 5797 5799 5802 5803 5806 5809 5813 5815 5817 5819 5820 5820 5820 5821 5822 5823 5824 5825 5826 5826 5827 5827 5828 5829
5573 5577 5582 5587 5591 5595 5599 5602 5607 5611 5613 5617 5622 5626 5630 5635 5641 5646 5650 5654 5658 5662 5666 5670 5674 5678 5681 5685 5690 5692 5695 5698 5701 5705 5708 5711 5716 5721 5726 5729 5733 5736 5739 5742 5745 5748 5751 5753 5755 5758 5761 5763 5765 5767 5770 5774 5777 5779 5781 5783 5784 5786 5789 5791 5793 5796 5798 5800 5802 5805 5808 5811 5814 5816 5816 5815 5815 5816 5817 5819 5820 5821 5822 5822 5823 5824 5824 5824
5568 5573 5577 5582 5586 5589 5594 5598 5601 5604 5607 5613 5619 5622 5626 5631 5635 5640 5645 5649 5654 5658 5661 5666 5671 5674 5677 5682 5685 5688 5692 5696 5699 5702 5705 5709 5714 5718 5722 5726 5729 5733 5735 5738 5740 5743 5746 5748 5750 5753 5755 5757 5760 5763 5767 5771 5773 5775 5777 5779 5781 5784 5786 5788 5790 5792 5794 5796 5798 5800 5803 5806 5810 5811 5811 5811 5811 5812 5813 5814 5815 5817 5818 5818 5819 5819 5819 5819
5565 5568 5572 5576 5580 5584 5588 5591 5595 5600 5605 5611 5615 5617 5622 5627 5630 5635 5640 5645 5649 5654 5659 5663 5667 5670 5674 5677 5680 5684 5688 5691 5695 5698 5702 5706 5710 5715 5720 5723 5726 5729 5731 5733 5736 5739 5742 5744 5746 5748 5751 5754 5757 5761 5764 5766 5768 5770 5773 5775 5778 5780 5782 5783 5784 5787 5790 5791 5792 5794 5797 5801 5805 5807 5807 5808 5808 5808 5809 5810 5811 5813 5814 5813 5814 5814 5814 5814
5560 5564 5568 5571 5575 5580 5583 5587 5591 5597 5601 5605 5609 5614 5618 5622 5626 5630 5636 5641 5645 5650 5654 5658 5662 5666 5669 5672 5675 5679 5683 5687 5691 5694 5698 5703 5707 5712 5717 5720 5722 5725 5727 5730 5733 5736 5738 5740 5742 5744 5747 5750 5753 5756 5758 5760 5763 5765 5767 5770 5773 5774 5776 5778 5780 5783 5785 5785 5787 5789 5791 5796 5801 5803 5803 5804 5804 5804 5805 5806 5807 5808 5809 5809 5809 5809 5809 5809
5556 5560 5564 5567 5571 5575 5578 5582 5587 5592 5596 5601 5607 5611 5614 5618 5621 5625 5631 5636 5640 5645 5649 5653 5657 5661 5664 5667 5670 5674 5678 5682 5686 5690 5695 5699 5703 5707 5711 5714 5717 5720 5722 5724 5727 5730 5733 5734 5736 5739 5742 5745 5747 5750 5752 5755 5757 5759 5763 5767 5769 5770 5773 5774 5775 5778 5778 5780 5783 5784 5786 5793 5799 5799 5799 5800 5799 5800 5801 5801 5802 5803 5804 5804 5803 5803 5803 5804
5553 5557 5560 5563 5566 5569 5572 5576 5583 5588 5593 5597 5602 5606 5609 5613 5617 5621 5626 5631 5636 5640 5645 5649 5653 5657 5660 5664 5667 5670 5673 5676 5680 5685 5690 5693 5697 5701 5705 5709 5712 5714 5716 5719 5723 5726 5727 5728 5730 5733 5735 5737 5739 5742 5745 5748 5752 5756 5760 5763 5764 5766 5768 5768 5770 5772 5773 5777 5780 5780 5783 5791 5794 5794 5794 5794 5794 5795 5796 5796 5797 5797 5797 5797 5796 5797 5798 5800
5549 5553 5556 5558 5560 5563 5568 5575 5582 5585 5588 5592 5596 5600 5603 5607 5612 5616 5621 5627 5631 5635 5640 5644 5648 5652 5656 5659 5662 5665 5667 5670 5675 5680 5684 5688 5692 5696 5699 5703 5706 5709 5712 5715 5718 5721 5721 5722 5725 5727 5728 5730 5733 5737 5742 5748 5751 5753 5756 5759 5760 5762 5763 5764 5766 5767 5769 5774 5776 5777 5782 5787 5789 5789 5789 5788 5788 5789 5790 5790 5791 5791 5790 5790 5790 5791 5793 5794
5544 5547 5551 5552 5554 5560 5566 5572 5576 5579 5583 5588 5592 5595 5598 5602 5607 5611 5615 5620 5625 5630 5635 5639 5643 5647 5650 5653 5657 5660 5663 5666 5670 5674 5679 5683 5686 5690 5694 5697 5701 5704 5706 5709 5712 5713 5713 5715 5719 5722 5724 5728 5733 5738 5743 5747 5747 5749 5753 5755 5756 5757 5759 5760 5760 5761 5767 5770 5770 5774 5779 5781 5782 5783 5782 5782 5783 5783 5784 5785 5785 5784 5784 5784 5785 5786 5787 5788
5539 5543 5548 5548 5549 5555 5561 5565 5571 5575 5580 5584 5587 5591 5594 5598 5602 5606 5610 5615 5620 5624 5629 5633 5637 5641 5645 5649 5653 5656 5659 5662 5665 5669 5674 5677 5680 5684 5687 5691 5694 5698 5701 5703 5705 5706 5707 5709 5713 5718 5721 5725 5729 5732 5736 5738 5739 5743 5746 5747 5749 5751 5752 5752 5752 5758 5763 5761 5762 5771 5775 5774 5776 5777 5777 5778 5778 5776 5777 5778 5778 5778 5778 5780 5780 5781 5781 5780
5536 5540 5546 5547 5546 5551 5556 5561 5568 5572 5575 5578 5582 5586 5589 5593 5597 5602 5606 5611 5615 5619 5623 5627 5631 5637 5641 5646 5649 5651 5654 5657 5659 5663 5667 5671 5675 5678 5681 5684 5687 5691 5695 5696 5698 5700 5702 5705 5710 5714 5717 5720 5723 5725 5729 5731 5734 5736 5738 5739 5742 5743 5743 5745 5748 5753 5755 5754 5760 5768 5769 5769 5771 5772 5773 5774 5772 5771 5771 5772 5773 5773 5773 5774 5774 5773 5773 5773
5532 5536 5542 5544 5546 5549 5554 5559 5564 5566 5569 5573 5576 5580 5584 5588 5593 5598 5602 5607 5610 5614 5618 5622 5627 5632 5636 5640 5642 5645 5648 5652 5655 5659 5663 5667 5669 5672 5675 5678 5680 5685 5688 5690 5693 5695 5697 5701 5705 5708 5712 5715 5717 5719 5723 5725 5727 5729 5732 5734 5736 5737 5739 5742 5746 5749 5750 5751 5757 5761 5761 5764 5768 5768 5770 5770 5767 5767 5767 5765 5766 5767 5766 5766 5766 5766 5766 5766
5528 5532 5536 5540 5544 5548 5552 5555 5558 5561 5564 5567 5571 5575 5580 5584 5588 5593 5597 5601 5605 5610 5614 5619 5624 5627 5631 5633 5636 5639 5644 5649 5653 5657 5660 5662 5665 5668 5670 5672 5675 5679 5681 5684 5687 5688 5692 5697 5700 5704 5706 5708 5710 5714 5716 5717 5720 5723 5725 5727 5730 5732 5735 5738 5742 5745 5744 5746 5753 5754 5754 5760 5765 5766 5767 5765 5762 5762 5761 5759 5759 5760 5758 5758 5759 5759 5760 5759
5523 5528 5532 5536 5540 5544 5547 5550 5553 5556 5559 5562 5567 5572 5575 5579 5585 5589 5592 5596 5600 5605 5609 5614 5618 5621 5624 5627 5631 5636 5641 5644 5648 5651 5654 5657 5660 5663 5665 5667 5671 5673 5674 5678 5680 5683 5687 5691 5695 5699 5699 5701 5706 5709 5709 5712 5714 5714 5716 5721 5725 5729 5732 5735 5738 5739 5738 5742 5747 5746 5747 5755 5761 5762 5762 5759 5756 5756 5755 5753 5752 5752 5752 5752 5752 5753 5752 5752
5519 5523 5528 5532 5535 5539 5542 5546 5548 5551 5554 5559 5565 5569 5572 5576 5581 5584 5587 5590 5594 5599 5603 5607 5611 5615 5618 5622 5627 5632 5636 5639 5642 5645 5647 5650 5653 5655 5658 5661 5664 5666 5668 5671 5674 5678 5682 5686 5690 5693 5693 5696 5701 5702 5704 5706 5702 5702 5711 5721 5725 5727 5729 5730 5730 5732 5735 5737 5738 5738 5744 5751 5753 5752 5752 5751 5749 5749 5749 5748 5746 5746 5747 5746 5746 5746 5745 5744